CZ-3C DEB, 40817

Orbit data source: Space-Track

CZ-3C DEB, 40817 is space debris in HEO originally from a launch on Sun, 31 Oct 2010 UTC launched from the Xichang Space Center, China (XSC). Debris objects in space refer to the collection of defunct objects orbiting the Earth. Examples of debris include non-operational satellites, rocket bodies, and fragments generated from explosions, collisions, or faulty payload assembly.

Not visible in the next 10 days
CZ-3C DEB details
Identifier
40817, 2010-057AJ
Orbit
HEO
Last TLE update4 days ago
Origin
Flag of CNCASC (CN / PRC)
ManufacturerCALT
MissionSpacecraft
Bus & MotorUnknown
MassUnknown
Launch date (UTC)
2010-10-31 (14 years ago)
Launch vehicleUnknown
Launch site
Xichang Space Center, China (XSC)
Object type
Payload
Rocket body
Debris
Shape & HBRUnknown
Radar Cross SectionMedium (>0.1 m² and <1 m²)

Expand to show TLE details & history

TLE from 4 days ago
0 CZ-3C DEB
1 40817U 10057AJ  24358.15554715  .00000078  00000-0  11380-1 0  9997
2 40817  20.1810 341.0644 7154410 105.2168 338.0420  2.19878232 37384
Epoch: 2024-12-23T03:43Z
Definitive object data (Epoch: 2024-12-23T03:43:59.273Z)
Latitude-0°
Longitude-167.14523°
Altitude8,594.565 km
Speed6.106 km/s
True Right ascension22h 44m 08s
True Declination0° 00' 00"
Sunlit
Object was in daylight at TLE epoch
Visualization TLE readout
Latitude-16.35169°
Longitude138.8108°
Altitude31,769.338 km
Speed2.223 km/s
Apparent Right ascension19h 33m 41s
Apparent Declination-23° 42' 33"
Sunlit
Object is in daylight
Visualization observer readout
Local Sidereal Time15:46:11
Azimuth129.381° SE
Elevation7.223°
Doppler factor1
Orbital elements
Apogee altitude36,482.988 km
Perigee altitude731.707 km
Semi-major axis24,985.485 km
Eccentricity0.715441
Inclination20.181°
RAAN341.0644°
Arg. of periapsis105.2168°
True anomaly255.01697°
Mean anomaly338.042°
Eccentric anomaly304.09726°
Mean motion0.54956 °/min
BSTAR0.01138
Orbital period655.07 mins
Loading maneuver chart data...
Loading historical data...
Loading historical data...
Loading historical data...
Loading historical data...
Loading historical data...
Loading historical data...
Loading historical data...

CZ-3C DEB Visibility forecast

Observer location: undefined°, undefined

CZ-3C DEB is not visible in the next 10 days
Span
Click to sort rows by Start time (UTC) header in descending order
Start Az.
Max El. time (UTC)
Max El. Az.
Max El.
End time (UTC)
End Az.
|